Theta_e
336 333 328 319 317 318 318 316 316 315 314 313 314 315 315 316 317 314 313 312 312 312 310 306 307 308 310 313 312 314 329 339 342 345 346 346 344 344 341 343 343 342 337
335 333 329 324 319 319 317 314 314 315 314 315 315 315 318 316 317 318 317 317 317 318 312 310 307 307 309 312 315 313 316 332 340 342 343 343 344 344 340 342 343 342 339
330 330 329 329 325 323 317 314 313 314 314 314 315 316 322 319 317 320 321 320 319 321 320 315 311 309 310 311 315 315 313 324 338 341 343 344 344 341 341 344 343 342 338
327 327 327 327 325 324 322 319 313 314 315 316 315 316 316 317 318 321 322 323 322 324 323 322 319 315 310 311 316 316 316 319 337 340 342 341 342 340 343 344 343 341 335
325 325 327 328 328 325 323 322 316 315 318 324 322 317 316 318 317 322 323 322 322 323 326 328 323 327 319 310 316 324 328 316 337 339 341 341 341 341 341 343 343 339 334
327 328 329 329 326 323 323 322 318 320 321 321 320 318 318 319 320 323 321 320 321 322 323 328 326 325 323 319 319 326 326 320 334 339 339 340 339 340 340 342 342 334 330
324 325 324 324 323 321 323 319 316 316 317 320 322 321 322 323 316 315 318 319 320 324 326 325 328 324 318 318 326 325 325 323 328 338 340 339 340 339 340 341 340 333 332
324 324 323 323 320 321 319 318 318 319 319 318 317 317 316 315 319 320 320 320 320 321 323 325 327 326 317 314 323 326 324 325 322 336 340 340 340 340 340 340 339 333 334
324 322 320 320 322 321 321 321 323 324 325 324 323 323 322 320 320 320 320 320 320 322 321 322 326 327 317 314 315 325 325 326 320 334 339 340 340 341 341 341 338 336 331
322 323 322 323 322 321 321 322 323 326 325 324 325 323 320 320 319 318 317 318 318 320 318 324 325 327 321 308 313 320 326 326 320 333 337 338 339 341 342 340 338 334 333
323 323 323 322 322 322 321 319 325 325 325 326 325 325 323 319 317 317 321 324 325 323 319 324 325 326 324 309 308 316 327 325 321 331 335 338 340 340 342 340 339 334 329
323 323 323 323 322 321 318 322 327 326 326 325 325 325 318 317 317 317 319 323 324 324 324 324 325 326 314 310 308 315 327 324 323 332 336 338 340 340 339 337 336 335 331
324 323 323 323 321 320 316 323 325 326 326 326 325 322 323 321 318 320 322 323 322 323 324 324 324 322 320 315 309 315 326 325 323 331 336 338 338 338 340 339 338 337 332
323 323 323 322 323 316 321 319 322 326 327 327 326 323 322 323 317 323 324 324 323 323 323 324 324 320 322 319 313 326 327 325 327 331 334 336 337 338 340 337 338 334 334
324 324 323 322 322 320 316 324 326 327 326 324 324 324 325 325 321 321 322 321 322 323 324 324 324 321 322 321 320 328 328 328 330 329 333 335 332 335 336 338 337 336 332
324 324 323 323 319 324 318 327 326 327 328 326 325 324 325 326 322 321 321 321 321 323 324 323 324 324 324 321 325 328 329 329 330 328 330 333 333 335 337 338 336 334 333
324 324 323 323 326 326 324 325 327 329 329 327 326 325 324 325 324 320 322 322 321 322 324 323 324 325 324 322 326 327 328 329 330 329 330 334 335 338 338 333 332 332 334
325 324 326 324 326 326 325 326 328 329 328 327 325 326 325 323 322 319 321 323 321 322 322 323 324 326 325 326 324 327 330 330 331 328 330 335 335 337 335 334 333 334 329
326 323 327 325 326 326 322 328 329 330 327 326 326 326 324 322 321 319 321 323 321 322 321 322 324 326 325 326 326 325 329 330 330 329 331 335 334 336 336 335 333 331 330
325 322 324 322 325 323 324 328 329 326 326 328 326 327 325 324 323 319 321 323 321 323 322 323 324 324 326 323 324 328 329 329 328 328 332 335 334 335 334 333 332 334 328
326 323 322 327 327 325 325 329 329 328 327 327 327 328 327 325 323 321 321 323 322 322 323 323 325 326 325 327 326 323 328 329 326 330 336 332 335 335 332 332 332 330 328
326 323 325 328 328 326 327 329 329 328 329 328 328 328 328 325 325 322 322 323 322 322 323 324 326 326 326 327 328 328 330 328 330 332 334 333 333 334 332 331 331 328 326
325 324 327 328 328 324 328 330 329 329 328 328 328 326 327 324 324 323 324 324 322 322 321 325 325 326 326 328 329 330 329 328 331 334 334 334 332 331 330 328 330 327 328
325 325 327 328 326 330 328 325 325 327 328 328 328 327 325 324 324 324 323 323 323 323 323 325 325 325 327 328 329 329 325 328 332 332 333 332 332 332 331 329 329 325 327
325 324 328 327 326 328 330 330 328 329 327 328 327 326 327 324 325 323 324 324 326 324 324 325 326 326 324 327 329 328 329 331 332 331 331 331 332 331 329 329 328 327 327
326 324 326 328 327 329 331 330 328 328 326 327 325 326 326 327 325 325 323 323 326 326 323 324 324 324 323 327 327 326 328 330 331 331 330 328 329 328 328 327 327 327 327
Wind_Speed
9 5 5 3 3 3 3 5 7 7 8 8 7 6 5 6 9 11 12 12 12 12 10 11 10 10 11 12 16 17 17 18 18 17 20 13 16 13 13 13 11 11 12
8 7 6 4 6 4 6 8 9 9 10 10 11 11 11 9 10 13 14 14 14 13 13 12 13 12 11 11 14 17 18 16 16 17 18 17 15 16 16 16 15 16 13
7 8 9 8 8 8 11 11 11 11 12 13 13 14 13 15 13 12 13 14 14 14 14 14 14 14 13 12 12 16 18 15 13 18 19 21 15 14 20 18 18 17 18
5 9 12 11 9 12 15 15 14 13 14 14 14 15 17 19 18 14 13 15 14 14 14 13 14 15 15 13 12 14 17 15 12 19 22 22 19 17 17 19 20 20 18
7 10 13 10 9 11 14 16 16 16 15 15 16 18 19 19 18 18 19 19 18 18 16 16 14 14 15 14 13 12 14 15 13 18 21 21 21 20 18 21 20 19 18
7 6 10 8 8 11 16 17 18 16 17 19 21 21 21 20 19 19 22 21 21 20 19 19 16 15 15 14 15 14 15 15 14 15 20 23 25 20 20 22 23 21 19
10 6 9 10 13 16 18 19 18 18 21 24 23 23 21 21 23 22 23 23 22 21 21 19 20 17 17 18 17 17 17 16 14 15 18 23 24 25 23 23 24 22 21
15 15 15 16 16 16 16 15 17 15 16 19 21 24 25 25 25 24 25 26 27 26 22 21 22 19 20 20 19 18 17 17 15 15 16 20 23 24 25 28 26 25 22
15 13 12 14 14 14 11 13 14 16 18 19 22 23 25 26 26 26 26 27 27 26 24 21 24 21 20 22 22 18 18 18 17 14 17 17 19 27 27 30 31 29 26
6 8 11 9 9 10 13 15 18 17 16 21 19 21 19 21 21 19 18 18 19 21 22 22 23 22 20 23 21 18 18 19 19 15 16 15 17 23 30 33 32 30 27
9 9 8 9 12 15 16 19 14 17 20 21 24 22 26 22 17 13 13 12 14 15 18 22 21 23 20 22 23 19 18 20 19 16 16 15 18 25 29 33 33 33 31
13 15 13 11 16 20 19 13 9 10 18 22 23 25 20 16 13 13 12 14 15 14 17 19 20 21 20 22 23 19 17 19 19 18 16 16 18 25 30 32 32 29 32
21 18 15 16 19 19 17 12 16 13 16 21 23 22 14 13 10 8 7 9 14 15 14 17 20 21 21 19 20 17 16 17 19 19 17 17 19 26 26 26 29 28 36
15 14 14 16 17 18 15 13 9 12 16 22 25 18 14 11 11 8 8 10 12 13 15 17 20 21 18 16 17 15 13 18 20 18 20 17 19 26 24 25 25 33 36
14 13 15 16 16 14 12 10 10 12 14 18 16 14 15 14 13 11 11 11 13 13 13 16 20 21 17 14 21 15 13 21 16 19 20 16 21 26 26 29 31 32 34
14 13 15 14 14 12 11 11 13 14 15 17 15 16 17 15 15 13 10 11 11 15 14 15 20 20 19 19 21 16 17 20 17 18 20 19 21 28 28 28 25 25 31
18 16 13 10 10 12 14 14 16 17 17 18 15 15 16 16 17 15 11 10 9 14 19 16 17 19 19 20 20 20 20 21 16 20 21 19 23 27 30 29 24 23 29
18 14 11 9 9 11 11 10 13 17 17 16 14 13 14 16 17 15 11 11 8 13 21 18 20 20 20 19 23 22 21 17 18 22 22 21 24 27 29 28 27 34 36
15 13 12 9 9 8 8 9 12 14 16 12 14 12 12 12 13 14 11 9 8 10 19 20 23 22 22 21 21 20 24 19 19 20 23 22 22 25 28 29 35 37 35
12 11 11 9 6 8 5 8 14 16 13 10 13 15 12 10 10 14 9 6 6 8 15 20 21 23 17 16 18 17 25 17 18 21 21 24 23 24 26 32 32 33 37
11 10 8 4 7 7 5 8 12 12 11 14 15 15 15 7 8 12 9 7 8 10 16 18 20 20 17 20 21 19 14 14 18 22 26 28 25 26 29 32 29 36 38
12 10 6 6 5 7 4 8 11 15 16 14 14 13 12 7 7 12 8 7 9 10 15 18 20 18 19 22 24 25 12 15 17 24 28 30 27 27 30 30 28 36 41
12 9 8 6 8 2 2 6 9 13 12 11 7 11 9 3 4 8 7 10 12 12 13 14 19 18 21 22 21 16 11 10 24 29 30 31 31 30 30 34 32 39 37
12 9 9 10 5 3 4 8 11 12 17 14 7 9 6 5 4 8 12 13 10 10 14 15 18 18 20 21 19 12 14 27 16 18 33 32 33 31 32 35 37 40 35
12 11 12 8 4 4 5 11 11 14 15 9 2 6 7 3 4 11 14 13 12 14 13 14 16 17 16 19 19 18 18 27 23 24 29 37 33 35 34 35 37 38 35
14 15 11 7 3 1 3 10 10 14 12 6 5 5 6 3 5 13 16 16 14 13 14 12 11 21 15 22 18 19 18 28 25 33 33 31 31 28 28 31 32 31 31
Wind_Direction
176 198 190 258 265 279 325 330 315 307 306 301 292 281 268 267 280 296 304 303 297 294 279 271 244 231 239 237 231 228 231 234 229 220 225 217 218 214 204 201 193 191 183
184 198 242 261 289 294 320 321 312 297 293 290 295 297 291 290 285 285 293 295 299 293 281 268 262 240 239 238 236 233 235 234 229 224 215 220 217 204 205 206 178 173 173
179 213 244 265 292 303 316 317 305 289 285 289 292 292 292 297 293 275 279 286 285 290 285 271 260 254 239 237 238 235 237 234 226 220 209 207 204 190 198 187 178 165 167
215 264 264 275 284 297 305 305 299 288 280 280 286 285 289 291 292 283 278 277 276 279 278 272 262 253 245 241 239 236 237 230 224 221 209 200 205 198 191 186 183 174 175
276 283 270 269 269 290 296 295 291 280 278 275 278 281 283 283 282 277 277 274 275 274 270 269 260 255 249 236 239 241 240 229 225 221 219 208 204 199 195 186 186 184 183
246 248 237 247 250 286 292 292 290 280 272 271 274 278 279 276 274 272 272 273 272 267 267 266 262 249 243 234 233 230 232 230 221 223 217 215 210 202 196 190 182 180 171
221 216 245 261 282 296 301 298 294 281 273 271 275 275 274 269 271 269 267 270 270 263 264 256 256 245 236 231 233 227 223 225 220 221 215 215 212 208 198 192 180 175 175
217 230 248 263 281 295 297 298 304 298 289 283 283 280 276 273 271 272 272 269 266 262 259 257 247 245 234 230 230 227 224 223 215 213 215 212 214 208 202 191 184 175 172
218 253 267 266 286 300 287 294 295 302 299 297 293 284 275 272 272 274 272 269 264 259 255 250 242 236 233 227 230 231 224 222 213 211 210 214 213 210 204 197 183 179 166
290 247 265 264 281 261 275 289 298 301 295 303 300 303 297 283 279 272 264 263 261 256 247 241 237 229 233 225 228 229 225 219 210 208 205 208 216 206 200 190 183 174 172
229 227 221 231 252 271 286 299 290 290 300 302 304 317 304 295 290 276 259 257 261 259 242 235 231 227 231 224 224 225 223 215 203 206 205 203 204 206 202 201 191 181 176
202 185 203 237 270 286 299 279 289 294 294 293 295 299 301 294 292 283 261 245 259 260 241 229 225 220 226 222 218 219 220 211 201 200 199 204 202 196 202 189 187 197 185
205 205 228 257 280 301 314 294 262 267 289 284 289 303 300 308 292 284 253 251 255 252 241 228 217 214 220 222 211 212 218 206 199 196 202 199 196 198 208 198 210 202 180
212 228 245 283 297 311 316 314 287 267 274 283 292 292 300 302 304 277 281 276 270 251 244 228 215 214 218 219 200 201 209 194 197 197 198 196 196 193 200 197 210 192 192
209 231 263 286 300 318 319 330 325 301 296 294 293 284 283 292 310 284 283 275 268 244 235 224 214 216 210 211 192 198 203 184 190 201 201 204 193 195 200 193 183 183 166
222 244 267 282 313 320 323 324 327 327 319 317 298 279 279 276 293 291 286 278 256 236 224 217 219 214 199 191 191 191 199 194 206 198 199 199 192 191 192 185 174 179 165
235 257 271 294 313 316 319 324 318 317 320 323 303 286 278 275 272 288 282 277 259 232 222 212 211 201 204 192 189 200 200 199 202 200 195 198 179 181 184 177 181 181 174
225 250 262 283 272 285 303 314 326 314 318 331 327 299 292 272 264 269 271 275 268 242 221 210 200 195 202 199 197 201 200 198 196 189 188 194 180 177 184 190 187 174 165
210 225 246 272 286 284 303 332 326 316 321 330 336 327 299 278 262 251 257 265 278 251 207 208 201 195 197 201 204 216 202 191 190 183 189 184 181 189 189 187 178 168 166
214 222 237 262 275 294 311 332 329 329 321 323 341 345 319 275 257 233 240 251 246 210 193 195 199 203 203 195 181 188 195 182 191 192 190 175 178 183 179 167 172 177 165
211 217 243 266 291 299 311 325 333 340 324 314 325 335 341 306 246 228 223 228 206 204 191 190 188 192 187 178 173 173 177 179 182 193 181 174 179 179 180 180 175 167 160
201 207 219 250 269 299 304 319 327 334 331 314 314 329 327 311 248 209 209 207 183 183 187 184 197 189 190 178 174 163 150 154 172 183 180 168 172 177 180 180 169 166 161
195 193 204 221 258 303 322 319 322 323 328 336 306 334 339 331 186 189 181 172 168 181 177 195 191 197 183 182 177 165 142 168 165 169 177 166 164 165 173 174 166 163 166
190 186 193 218 259 273 321 315 335 349 341 341 307 332 358 8 149 167 161 156 154 153 170 175 175 189 186 184 183 189 183 168 154 139 164 167 167 168 173 172 165 162 164
180 188 190 231 240 251 327 347 358 350 351 353 16 0 13 37 150 162 166 149 151 139 158 157 167 180 196 184 191 178 165 157 166 144 138 156 171 176 172 173 166 166 168
178 188 199 207 232 103 312 330 353 9 9 47 59 10 9 2 150 168 170 164 168 153 157 164 166 173 176 181 183 189 176 163 156 144 141 153 154 166 166 168 170 172 173